Location: El Gallo
(32.4380°N, 116.9347°W)
Time: 19:41:49
(UTC+00:00)

CZ-2C R/B - Pass Details

Date: 01 October 2022
Orbit: 784 x 870 km, 98.3° (Epoch: 01 December)

Event Time Altitude Azimuth Distance (km) Brightness Sun altitude
Rises 12:04:40 0° 169° (S) 3,261 5.8 -21.3°
Reaches altitude 10° 12:06:58 10° 170° (S) 2,341 5.0 -20.8°
Maximum altitude 12:12:08 81° 257° (WSW) 810 2.4 -19.7°
Drops below altitude 10° 12:17:25 10° 345° (NNW) 2,394 5.0 -18.6°
Sets 12:19:48 0° 347° (NNW) 3,342 5.8 -18.1°
